Temp
1 2 2 2 2 2 2 2 2 2 2 2 2 2 2 2 2 2 2 2 2 2 2 2 2 2 2 2 2 2 2 2 2 2 2 3 3 3 3 3 3 4 4 4 4 4 4 4 4 4 4 4 4 4 4 4 4 5 5 5 5 5 5 5 5 5 5 5 5
1 1 1 2 2 2 2 2 2 2 2 2 2 2 2 2 2 2 2 2 2 2 2 2 2 2 2 2 2 2 2 2 2 2 2 2 3 3 3 3 3 3 4 4 4 4 4 4 4 4 3 4 4 4 4 4 4 4 4 4 4 4 4 4 4 4 4 4 4
1 1 1 1 1 1 2 2 2 2 2 2 2 2 2 2 1 1 1 1 1 1 1 1 2 2 2 2 2 2 2 2 2 2 2 2 2 3 3 3 3 3 3 3 3 3 3 3 3 3 3 3 3 3 3 3 4 4 4 4 4 4 4 4 4 4 4 4 4
1 1 1 1 1 1 1 1 2 2 2 2 2 2 1 1 1 1 1 1 1 1 1 1 1 1 1 1 1 1 1 2 2 2 2 2 2 2 2 2 2 2 3 3 3 3 3 3 3 3 3 3 3 3 3 3 3 3 3 3 3 3 3 3 3 3 4 4 4
1 1 1 1 1 1 1 1 1 1 1 1 1 1 1 1 1 1 1 1 1 1 1 1 1 1 1 1 1 1 1 1 1 2 2 2 2 2 2 2 2 2 2 2 2 2 2 2 2 2 3 3 3 3 3 3 3 3 3 3 3 3 3 3 3 3 3 3 3
1 1 1 1 1 1 1 1 1 1 1 1 1 1 1 1 1 1 1 1 1 1 1 1 1 1 1 1 1 1 1 1 1 1 1 1 1 1 1 1 2 2 2 2 2 2 2 2 2 2 2 2 2 2 2 3 3 3 2 2 2 2 2 2 3 3 3 3 3
1 1 1 1 1 1 1 1 1 1 1 1 1 1 1 1 1 1 1 1 1 1 1 1 1 1 1 1 1 1 1 1 1 1 1 1 1 1 1 1 1 2 2 2 2 2 2 2 2 2 2 2 2 2 2 2 2 2 2 2 2 2 2 2 2 2 2 3 3
1 1 1 1 1 1 1 1 1 1 1 1 1 1 1 1 1 1 1 0 0 0 0 0 0 0 0 0 0 0 0 0 0 0 0 1 1 1 1 1 1 1 1 2 2 2 1 1 1 1 1 1 1 1 2 2 2 2 2 2 1 1 1 2 2 2 2 2 2
0 0 1 1 1 1 1 1 1 1 1 1 1 1 1 1 1 1 0 0 0 0 -0 -0 -0 -0 -0 -0 -0 -0 -1 -1 -1 -0 -0 0 0 0 1 1 1 1 1 1 1 1 1 1 1 1 1 1 1 1 1 1 1 1 1 1 1 1 1 1 1 1 1 2 2
0 0 0 1 1 1 1 1 1 1 1 1 1 1 1 1 1 0 0 0 0 -0 -0 -0 -1 -1 -1 -1 -1 -1 -1 -1 -1 -1 -1 -0 -0 -0 0 0 0 0 1 1 1 1 1 1 0 0 0 0 1 1 1 1 1 1 1 0 0 1 1 1 1 1 1 1 1
0 0 0 0 1 1 1 1 1 1 1 1 1 1 0 0 0 0 0 -0 -0 -0 -0 -1 -1 -1 -1 -1 -1 -1 -1 -1 -1 -1 -1 -1 -1 -0 -0 -0 -0 -0 -0 -0 -0 0 0 0 0 0 0 0 0 0 0 0 0 0 -0 -0 0 0 0 0 0 1 1 1 1
-0 0 0 0 0 0 1 1 1 1 1 1 1 0 0 0 0 -0 -0 -0 -0 -1 -1 -1 -1 -1 -1 -1 -1 -1 -2 -2 -1 -1 -1 -1 -1 -1 -1 -1 -1 -1 -1 -1 -1 -1 -0 -0 -0 -0 -0 -0 -0 -0 -0 -0 -0 -1 -1 -1 -0 -0 -0 -0 -0 -0 0 0 1
-0 -0 -0 0 0 0 0 1 1 1 1 1 0 0 0 0 -0 -0 -0 -1 -1 -1 -1 -1 -1 -1 -1 -1 -1 -2 -2 -2 -2 -2 -1 -1 -1 -1 -1 -1 -1 -1 -1 -1 -1 -1 -1 -1 -1 -1 -1 -1 -1 -1 -1 -1 -1 -1 -1 -1 -1 -1 -1 -1 -1 -0 -0 -0 0
-0 -0 -0 0 0 0 0 1 1 1 1 1 1 0 0 0 0 -0 -0 -1 -1 -1 -1 -1 -1 -1 -1 -2 -2 -2 -2 -2 -2 -2 -1 -1 -1 -1 -1 -1 -1 -1 -1 -1 -1 -1 -1 -1 -1 -1 -1 -1 -1 -1 -1 -1 -1 -1 -1 -1 -1 -1 -1 -1 -1 -1 -1 -0 -0
-0 -0 0 0 0 0 0 1 1 1 1 1 1 1 1 1 0 0 -0 -0 -0 -1 -1 -1 -1 -1 -2 -2 -2 -2 -2 -2 -2 -2 -2 -2 -1 -1 -1 -1 -1 -1 -1 -1 -1 -1 -1 -1 -1 -1 -1 -2 -2 -2 -2 -1 -1 -1 -1 -1 -1 -1 -1 -1 -1 -1 -1 -1 -1
0 0 0 0 0 0 0 0 0 1 1 1 1 1 1 1 1 1 0 0 0 -0 -0 -1 -1 -1 -1 -2 -2 -2 -2 -2 -2 -2 -2 -2 -2 -2 -2 -2 -2 -2 -2 -2 -2 -2 -2 -1 -1 -1 -1 -2 -2 -2 -2 -2 -2 -2 -2 -2 -2 -2 -2 -2 -1 -1 -1 -1 -1
0 0 0 0 0 0 0 0 0 0 0 0 1 1 1 1 1 1 1 1 0 0 -0 -0 -1 -1 -1 -1 -2 -2 -2 -2 -2 -2 -2 -2 -2 -2 -2 -2 -2 -2 -2 -2 -2 -2 -2 -2 -2 -2 -2 -2 -2 -2 -2 -2 -2 -2 -2 -2 -2 -2 -2 -2 -2 -2 -2 -1 -1
0 0 0 -0 -0 -0 -0 -0 0 0 0 0 0 0 0 0 0 1 1 0 0 0 -0 -0 -1 -1 -1 -1 -2 -2 -2 -2 -2 -2 -2 -2 -2 -2 -2 -2 -2 -2 -2 -2 -2 -2 -2 -2 -2 -2 -2 -2 -2 -2 -2 -2 -2 -2 -2 -2 -2 -2 -2 -2 -2 -2 -2 -2 -2
-0 -0 -0 -0 -0 -0 -0 -0 -0 0 0 0 0 0 0 0 0 0 0 0 0 -0 -0 -1 -1 -1 -1 -2 -2 -2 -2 -2 -2 -2 -2 -2 -2 -2 -2 -2 -2 -2 -2 -2 -2 -2 -2 -2 -2 -2 -2 -2 -2 -2 -2 -2 -2 -2 -2 -2 -2 -2 -2 -2 -2 -2 -2 -2 -2
-0 -0 -0 -1 -1 -1 -0 -0 -0 -0 -0 -0 -0 -0 -0 -0 -0 -0 -0 -0 -0 -0 -1 -1 -1 -1 -1 -2 -2 -2 -2 -2 -1 -1 -1 -1 -1 -1 -2 -2 -2 -2 -2 -2 -2 -2 -2 -2 -2 -2 -2 -2 -2 -2 -2 -3 -3 -3 -3 -3 -3 -3 -3 -3 -3 -3 -3 -3 -2
-1 -1 -1 -1 -1 -1 -1 -1 -0 -0 -0 -0 -0 -0 -0 -0 -0 -0 -0 -0 -0 -0 -1 -1 -1 -1 -1 -1 -1 -2 -2 -2 -2 -2 -2 -1 -1 -1 -1 -1 -2 -2 -2 -2 -2 -2 -2 -2 -2 -2 -2 -2 -2 -2 -2 -3 -3 -3 -3 -3 -3 -3 -3 -3 -3 -3 -3 -3 -3
-1 -1 -1 -1 -1 -1 -1 -1 -1 -1 -1 -1 -1 -1 -1 -1 -1 -1 -1 -1 -1 -1 -1 -1 -1 -1 -1 -1 -1 -1 -1 -2 -2 -2 -2 -2 -2 -2 -2 -2 -2 -2 -2 -2 -2 -2 -2 -2 -2 -2 -2 -2 -2 -2 -2 -2 -2 -2 -2 -3 -3 -3 -3 -3 -3 -3 -3 -3 -3
-1 -1 -1 -1 -1 -1 -1 -1 -1 -1 -1 -1 -1 -1 -1 -1 -1 -1 -1 -1 -1 -1 -1 -1 -1 -1 -1 -1 -1 -1 -1 -1 -1 -2 -2 -2 -2 -2 -2 -2 -2 -2 -2 -2 -2 -2 -2 -2 -2 -2 -2 -2 -2 -2 -2 -2 -2 -2 -2 -2 -2 -2 -2 -3 -3 -3 -3 -3 -3
-1 -1 -1 -1 -1 -1 -1 -1 -1 -1 -1 -1 -1 -1 -1 -1 -1 -1 -1 -1 -1 -1 -1 -1 -1 -1 -1 -1 -1 -1 -1 -1 -1 -1 -1 -1 -1 -2 -2 -2 -2 -2 -2 -2 -2 -2 -2 -2 -2 -2 -2 -2 -2 -2 -2 -2 -2 -2 -2 -2 -2 -2 -2 -2 -2 -2 -2 -2 -3
-1 -1 -1 -1 -1 -1 -1 -1 -1 -1 -1 -1 -1 -1 -1 -1 -1 -1 -1 -1 -1 -1 -1 -1 -1 -1 -1 -1 -1 -1 -1 -1 -1 -1 -1 -1 -2 -2 -2 -2 -2 -2 -2 -2 -2 -2 -2 -2 -2 -2 -2 -2 -1 -1 -1 -1 -1 -1 -1 -2 -2 -2 -2 -2 -2 -2 -2 -2 -2
-1 -1 -1 -2 -2 -2 -1 -1 -1 -1 -1 -1 -1 -1 -1 -1 -1 -1 -1 -1 -1 -1 -1 -1 -1 -1 -1 -1 -1 -1 -1 -1 -1 -1 -1 -1 -2 -2 -2 -2 -2 -2 -2 -2 -2 -2 -2 -2 -2 -2 -2 -2 -2 -2 -2 -1 -1 -1 -1 -1 -1 -1 -1 -1 -1 -2 -2 -2 -2
-1 -1 -2 -2 -2 -2 -2 -2 -2 -2 -1 -1 -1 -1 -1 -1 -1 -1 -1 -1 -1 -1 -1 -1 -1 -1 -1 -1 -1 -1 -1 -1 -1 -1 -1 -1 -2 -2 -2 -2 -2 -2 -2 -2 -2 -2 -2 -2 -2 -2 -2 -2 -2 -2 -2 -2 -2 -1 -1 -1 -1 -1 -1 -1 -1 -1 -2 -2 -2
-1 -2 -2 -2 -2 -2 -2 -2 -2 -2 -2 -2 -1 -1 -1 -1 -1 -1 -1 -1 -1 -1 -1 -1 -1 -1 -1 -1 -1 -1 -1 -1 -1 -1 -1 -2 -2 -2 -2 -2 -2 -2 -2 -2 -2 -2 -2 -2 -2 -2 -2 -2 -2 -2 -2 -2 -2 -2 -2 -1 -1 -1 -1 -1 -1 -1 -1 -2 -2
-2 -2 -2 -2 -2 -2 -2 -2 -2 -2 -2 -2 -2 -2 -2 -2 -2 -1 -1 -1 -1 -1 -1 -1 -1 -1 -1 -1 -1 -1 -1 -1 -1 -1 -1 -1 -2 -2 -2 -2 -2 -2 -2 -2 -2 -2 -2 -2 -2 -2 -2 -2 -2 -2 -2 -2 -2 -2 -2 -2 -2 -2 -2 -2 -2 -2 -2 -2 -2
-2 -2 -2 -2 -2 -2 -2 -2 -2 -2 -2 -2 -2 -2 -2 -2 -2 -2 -2 -1 -1 -1 -1 -1 -1 -1 -1 -1 -1 -1 -1 -1 -1 -1 -1 -1 -2 -2 -2 -2 -2 -2 -2 -2 -2 -2 -2 -2 -2 -2 -2 -2 -2 -2 -2 -2 -2 -2 -2 -2 -2 -2 -2 -2 -2 -2 -2 -2 -2
-2 -2 -2 -2 -2 -2 -2 -2 -2 -2 -2 -2 -2 -2 -2 -2 -2 -2 -2 -2 -2 -1 -1 -1 -1 -1 -1 -1 -1 -1 -1 -1 -1 -1 -1 -1 -2 -2 -2 -2 -2 -2 -2 -2 -2 -2 -2 -2 -2 -2 -2 -2 -3 -3 -3 -2 -2 -2 -2 -2 -2 -2 -2 -2 -2 -2 -2 -2 -2
-2 -3 -3 -3 -3 -3 -2 -2 -2 -2 -2 -2 -2 -2 -2 -2 -2 -2 -2 -2 -2 -1 -1 -1 -1 -1 -1 -1 -1 -1 -1 -1 -1 -1 -1 -1 -1 -2 -2 -2 -2 -2 -2 -2 -2 -2 -2 -2 -2 -2 -2 -3 -3 -3 -3 -3 -3 -2 -2 -2 -2 -2 -2 -2 -2 -2 -2 -2 -3
-3 -3 -3 -3 -3 -3 -3 -2 -2 -3 -3 -2 -2 -2 -2 -2 -2 -2 -2 -2 -2 -2 -1 -1 -1 -1 -1 -1 -1 -1 -1 -1 -1 -1 -1 -1 -1 -2 -2 -2 -2 -2 -2 -2 -2 -2 -2 -2 -2 -2 -2 -3 -3 -3 -3 -3 -3 -3 -2 -2 -2 -2 -2 -2 -2 -2 -3 -3 -3
-3 -3 -3 -3 -3 -3 -3 -3 -3 -3 -3 -3 -3 -3 -3 -2 -2 -2 -2 -2 -2 -2 -2 -1 -1 -1 -1 -1 -1 -1 -1 -1 -1 -1 -1 -1 -2 -2 -2 -2 -2 -2 -2 -2 -2 -2 -2 -2 -2 -2 -2 -3 -3 -3 -3 -3 -3 -3 -3 -3 -3 -3 -3 -3 -2 -2 -2 -3 -3
-3 -3 -3 -3 -3 -3 -3 -3 -3 -3 -3 -3 -3 -3 -3 -3 -3 -2 -2 -2 -2 -2 -2 -2 -1 -1 -1 -1 -1 -1 -1 -1 -1 -1 -1 -1 -2 -2 -2 -2 -2 -2 -2 -2 -2 -2 -2 -2 -2 -2 -2 -3 -3 -3 -3 -3 -3 -3 -3 -3 -3 -3 -3 -3 -3 -3 -2 -2 -3
-3 -3 -3 -3 -3 -3 -3 -3 -3 -3 -3 -3 -3 -3 -3 -3 -3 -3 -2 -2 -2 -2 -2 -2 -2 -2 -1 -1 -1 -1 -1 -1 -1 -1 -1 -1 -2 -2 -2 -2 -2 -2 -2 -2 -2 -2 -2 -2 -2 -2 -2 -3 -3 -3 -3 -3 -3 -3 -3 -3 -3 -3 -3 -3 -3 -3 -3 -3 -3
-3 -3 -3 -4 -3 -3 -3 -3 -3 -3 -3 -3 -3 -3 -3 -3 -3 -3 -3 -3 -2 -2 -2 -2 -2 -2 -2 -2 -2 -1 -1 -1 -1 -1 -1 -1 -1 -2 -2 -2 -2 -2 -2 -2 -2 -2 -2 -2 -2 -2 -2 -2 -2 -2 -2 -2 -3 -3 -3 -3 -3 -3 -3 -3 -3 -3 -3 -3 -3
-3 -3 -4 -4 -4 -4 -3 -3 -3 -3 -3 -3 -3 -3 -3 -3 -3 -3 -3 -3 -3 -3 -3 -2 -2 -2 -2 -2 -2 -2 -2 -1 -1 -1 -1 -1 -1 -2 -2 -2 -2 -2 -2 -2 -2 -2 -2 -2 -2 -2 -2 -2 -2 -2 -2 -2 -2 -2 -2 -3 -3 -3 -3 -3 -3 -3 -3 -3 -3
-3 -4 -4 -4 -4 -4 -4 -4 -4 -4 -4 -3 -3 -3 -3 -3 -3 -3 -3 -3 -3 -3 -3 -3 -3 -3 -2 -2 -2 -2 -2 -2 -2 -1 -1 -1 -1 -2 -2 -2 -2 -2 -2 -2 -2 -2 -2 -2 -2 -2 -2 -2 -2 -2 -2 -2 -2 -2 -2 -2 -2 -3 -3 -3 -3 -3 -3 -3 -3
-3 -4 -4 -4 -4 -4 -4 -4 -4 -4 -3 -3 -3 -4 -3 -3 -3 -3 -3 -3 -3 -3 -3 -3 -3 -3 -3 -3 -3 -2 -2 -2 -2 -2 -2 -2 -2 -2 -2 -2 -2 -2 -2 -2 -2 -2 -3 -2 -2 -2 -2 -2 -2 -2 -2 -2 -2 -2 -2 -2 -2 -2 -3 -3 -3 -3 -3 -3 -4
-4 -4 -4 -4 -4 -4 -4 -4 -4 -4 -3 -4 -4 -4 -4 -4 -4 -3 -3 -3 -3 -3 -3 -3 -3 -3 -3 -3 -3 -3 -2 -2 -2 -2 -2 -2 -2 -2 -2 -2 -2 -2 -2 -2 -2 -2 -3 -3 -3 -3 -3 -2 -2 -2 -2 -2 -2 -2 -2 -2 -2 -3 -3 -3 -3 -3 -3 -3 -3
Height
809 809 809 809 809 809 808 809 809 808 808 808 808 807 807 806 806 806 806 806 807 807 807 807 808 808 808 808 808 808 808 808 808 808 808 808 808 808 808 809 809 809 809 809 809 809 809 809 809 809 810 810 810 811 811 811 811 811 812 812 813 813 813 813 814 814 815 815 815
810 810 810 810 810 809 809 809 809 809 809 808 808 807 807 807 807 807 807 807 807 807 808 808 808 808 809 809 809 809 809 809 809 809 809 809 809 809 809 809 809 809 809 809 809 809 810 810 810 810 810 811 811 811 811 811 812 812 812 813 813 813 813 814 814 815 815 816 816
811 811 811 811 811 810 810 810 810 809 809 808 808 808 807 807 807 807 807 808 808 808 808 809 809 809 809 809 809 809 809 809 809 809 809 809 809 809 809 809 810 810 810 810 810 810 810 810 810 810 811 811 811 811 812 812 812 812 812 813 813 813 814 814 815 815 816 816 817
813 812 812 812 811 811 811 810 810 809 809 808 808 808 807 807 808 808 808 808 808 808 809 809 810 810 810 810 810 810 810 810 810 810 810 810 810 810 810 810 810 810 810 810 810 810 810 810 811 811 811 812 812 812 812 813 813 813 813 813 814 814 814 815 815 816 816 817 817
813 813 813 812 812 811 811 811 810 809 808 808 808 808 808 808 808 808 809 809 809 809 809 810 810 810 810 810 810 810 810 810 810 810 810 810 810 810 810 810 810 810 811 811 811 811 811 811 811 811 812 812 812 813 813 813 813 813 814 814 814 815 815 816 816 816 817 817 817
813 813 813 812 812 812 811 811 810 809 808 808 808 808 808 809 809 809 809 809 809 810 810 810 810 810 810 810 811 811 811 811 811 811 811 811 811 811 811 811 811 811 811 811 811 811 811 811 811 812 812 813 813 813 813 813 814 814 814 815 815 816 816 816 817 817 817 818 818
812 812 812 812 812 811 811 810 809 809 808 808 808 809 809 809 810 810 810 810 810 810 810 810 810 810 810 811 811 811 811 811 811 811 811 811 811 811 811 811 811 811 811 812 812 812 812 812 812 812 813 813 813 814 814 814 814 814 815 816 816 816 817 817 817 818 818 818 818
812 812 812 811 811 811 810 810 809 809 809 809 809 810 810 810 810 810 810 810 810 810 811 811 811 811 811 811 811 811 811 811 811 811 811 811 811 811 812 812 812 812 812 812 812 812 812 812 812 813 813 814 814 814 814 814 814 815 815 816 817 817 818 818 818 818 819 819 819
812 811 811 811 811 810 810 810 810 809 810 810 810 811 811 811 811 811 811 811 811 811 812 812 812 812 812 812 812 812 812 812 812 812 812 812 812 812 812 812 812 812 812 812 813 813 813 813 813 813 814 814 814 815 815 815 815 815 816 817 818 818 818 818 819 819 819 820 820
811 811 811 811 811 810 810 810 810 810 811 811 811 811 812 812 811 811 811 812 812 812 812 813 813 813 812 812 812 812 812 812 812 812 812 812 812 812 812 812 812 812 813 813 813 813 813 813 813 814 814 815 815 815 816 816 816 816 817 818 818 818 819 819 819 820 820 821 821
812 811 811 811 811 811 811 811 811 811 812 812 812 812 812 812 812 812 812 812 813 813 813 813 813 813 813 813 813 813 813 813 813 813 813 813 813 813 813 813 813 813 813 813 813 813 813 814 814 814 815 815 816 816 816 817 817 817 818 818 818 819 819 820 820 821 821 822 822
812 812 812 812 812 812 812 812 812 812 812 813 813 813 813 813 813 813 813 813 813 813 813 814 814 813 813 814 814 814 814 814 814 814 814 813 813 813 813 813 813 813 813 814 814 814 814 814 815 815 816 816 817 817 817 818 818 818 818 819 819 819 820 820 821 821 822 822 823
812 813 813 813 813 813 813 813 813 813 813 813 813 813 814 814 814 814 814 814 814 814 814 814 814 814 815 815 815 815 815 815 815 814 814 814 814 814 814 814 814 814 814 814 815 815 815 815 815 816 816 817 818 818 818 818 818 819 819 820 820 820 821 821 822 822 822 823 823
813 813 813 813 813 813 813 814 814 814 814 814 814 814 814 814 815 815 815 815 815 815 815 815 815 815 815 815 815 815 815 815 815 815 815 815 814 814 814 815 815 815 815 815 816 816 816 816 816 817 817 818 818 819 819 819 819 820 820 821 821 821 822 822 823 823 823 823 824
813 813 813 813 813 814 814 814 814 815 815 815 815 815 815 815 815 815 815 815 816 816 816 816 816 816 816 816 816 816 816 816 816 815 815 815 815 815 815 815 816 816 816 816 817 817 817 817 817 817 818 818 819 819 820 820 820 821 821 821 822 822 823 823 823 823 823 824 824
813 814 814 814 814 814 814 814 814 815 815 815 815 815 816 816 816 817 817 817 817 817 817 817 817 817 817 817 817 817 817 816 816 816 816 816 816 816 816 816 817 817 817 817 817 817 818 818 818 818 818 819 819 820 820 821 821 821 822 822 823 823 823 823 824 824 824 824 825
814 814 814 814 814 814 814 814 814 814 815 815 815 815 816 817 817 818 818 818 818 818 818 818 818 818 818 818 818 818 817 817 817 817 817 817 817 817 817 817 818 818 818 818 818 818 818 818 819 819 819 820 820 821 821 822 822 822 823 823 823 824 824 824 824 824 824 825 825
813 814 814 814 814 814 814 814 815 815 815 815 815 816 816 817 818 818 818 818 818 818 818 818 818 818 818 818 818 818 818 818 818 818 818 818 818 818 818 818 818 818 819 819 819 819 819 819 820 820 820 821 821 822 822 822 823 823 823 824 824 824 825 825 825 825 825 825 826
813 814 814 814 814 814 814 815 815 815 815 816 816 816 817 818 818 818 818 818 818 818 818 818 819 819 819 819 819 819 819 818 818 818 818 818 818 818 819 819 819 819 820 820 820 820 820 820 821 821 821 822 822 822 823 823 823 824 824 825 825 825 825 825 825 825 825 826 827
813 814 814 814 814 815 815 815 815 816 816 816 817 817 818 818 818 818 818 819 819 819 819 819 819 819 820 820 820 819 819 819 819 819 819 819 819 819 820 820 820 820 820 821 821 821 821 822 822 822 822 823 823 823 823 824 824 825 825 826 826 826 826 826 826 826 826 826 827
813 814 814 814 814 815 815 815 816 816 816 817 817 818 818 818 818 819 819 819 819 819 819 820 820 820 820 820 820 820 820 820 820 820 820 820 821 821 821 821 821 821 821 822 822 822 822 823 823 823 823 824 824 824 824 825 825 825 826 826 826 827 827 827 827 827 827 827 828
813 814 814 814 815 815 815 816 816 816 817 817 818 818 818 818 819 819 819 819 820 820 820 820 820 820 820 821 821 821 821 821 821 821 821 821 821 822 822 822 822 823 823 823 823 823 823 823 824 824 824 825 825 825 825 825 826 826 826 826 827 828 828 828 828 828 827 828 828
813 814 814 814 815 815 815 816 816 817 817 817 818 818 818 818 819 819 819 820 820 820 820 820 820 821 821 821 821 821 822 822 822 822 822 822 823 823 823 823 823 823 824 824 824 824 824 824 825 825 825 826 826 826 826 826 826 826 826 827 828 828 829 829 829 828 828 828 829
813 814 814 814 815 815 816 816 816 817 817 817 818 818 818 819 819 819 820 820 820 820 820 820 821 821 821 821 822 822 822 822 823 823 823 823 823 823 824 824 824 824 824 825 825 825 825 825 825 826 826 827 827 827 827 827 827 827 827 828 828 829 829 830 829 829 829 829 829
813 814 814 815 815 815 816 816 816 817 817 818 818 818 818 819 819 820 820 820 820 820 821 821 821 821 822 822 822 822 823 823 823 823 823 824 824 824 824 824 824 825 825 825 826 826 826 826 826 826 827 827 827 827 828 828 828 828 828 829 829 830 830 830 830 830 830 830 830
813 814 814 815 815 815 816 816 816 817 817 818 818 818 819 819 820 820 820 820 821 821 821 821 822 822 822 822 822 823 823 823 823 823 824 824 824 824 824 825 825 825 825 826 826 826 826 827 827 827 827 827 827 827 828 828 828 828 829 829 830 830 830 830 830 830 830 830 831
813 814 814 815 815 815 816 816 816 817 817 818 818 818 819 819 820 820 820 820 821 821 821 822 822 822 823 823 823 823 823 823 823 823 824 824 824 824 825 825 825 825 826 826 826 827 827 827 827 827 827 827 828 828 828 828 829 829 830 830 830 830 830 830 830 831 831 831 831
813 813 814 814 815 815 816 816 816 817 817 818 818 818 818 819 819 820 820 820 821 821 822 822 823 823 823 823 823 823 823 823 823 824 824 824 824 824 825 825 826 826 826 827 827 827 827 828 828 828 828 828 828 828 828 829 829 829 830 830 830 830 830 830 831 831 831 831 832
813 813 814 814 815 815 815 816 816 817 817 817 818 818 818 818 819 819 820 820 821 821 822 823 823 823 823 823 823 823 823 823 823 824 824 824 825 825 825 826 826 827 827 827 827 827 828 828 828 828 828 828 828 828 829 829 829 829 830 830 830 830 830 830 830 831 831 832 832
813 813 813 814 814 814 815 815 816 816 816 817 817 818 818 818 818 819 820 820 821 822 822 822 823 823 823 823 823 823 823 823 823 824 824 825 825 826 827 827 828 828 828 828 828 828 828 828 829 829 829 829 829 829 829 829 829 829 830 830 830 830 830 830 830 831 831 832 832
812 813 813 813 813 814 814 815 815 816 816 816 817 817 817 818 818 819 820 820 821 821 822 822 822 822 823 823 823 823 823 823 824 824 825 826 826 827 828 828 828 828 828 828 828 828 829 829 829 829 829 829 829 829 829 829 829 829 829 829 829 830 830 830 830 831 831 832 832
811 812 813 813 813 813 814 814 815 815 816 816 816 817 817 818 818 819 819 820 820 821 821 821 821 822 822 822 822 823 823 824 824 825 826 827 827 828 828 829 829 829 829 829 829 829 829 829 829 829 829 829 829 829 829 829 829 829 829 829 829 830 830 830 830 831 831 832 832
811 811 812 812 813 813 813 814 814 815 815 816 816 817 817 818 818 819 819 819 820 820 820 820 820 821 821 822 822 823 823 824 825 826 827 827 828 829 829 829 829 829 830 829 829 829 829 829 830 830 830 830 830 830 830 829 829 829 829 829 830 830 830 830 830 831 831 832 832
810 810 811 811 812 812 813 813 814 814 815 815 816 817 817 817 818 818 818 818 819 819 819 819 820 820 821 822 823 823 824 825 826 827 828 828 829 829 829 830 830 830 830 830 829 829 829 830 830 830 830 830 830 830 830 830 830 829 830 830 830 830 830 831 831 831 832 832 832
809 809 810 810 811 811 812 813 813 814 815 815 816 816 816 817 817 817 817 817 818 818 818 819 819 820 821 822 823 824 825 826 827 828 828 828 829 829 830 830 830 830 830 830 830 830 830 830 830 830 830 830 830 830 830 830 830 830 830 830 830 830 830 831 831 831 832 832 832
808 808 809 809 810 811 812 812 813 813 814 815 815 815 815 815 815 816 816 816 817 817 818 818 819 820 821 822 823 824 825 826 827 828 828 828 829 829 829 830 830 830 830 830 830 830 830 830 830 830 830 830 830 830 830 830 830 830 830 830 830 830 831 831 831 832 832 832 833
807 808 808 809 809 810 811 812 812 813 813 814 814 814 814 814 814 815 815 815 816 817 818 818 819 820 822 823 824 825 826 827 827 828 828 828 829 829 829 829 830 830 830 830 830 830 830 830 830 830 830 830 830 830 830 830 830 830 830 830 830 831 831 831 831 832 832 832 833
806 807 808 808 809 810 810 811 812 812 813 813 813 813 813 813 814 814 815 815 816 817 818 819 820 821 822 823 824 825 826 826 827 828 828 828 828 829 829 829 829 829 830 830 830 830 830 830 830 830 830 830 830 830 830 830 830 830 830 830 831 831 831 831 831 832 832 832 833
805 806 807 808 808 809 810 810 811 812 812 812 813 813 813 813 813 814 815 816 817 817 818 819 820 821 822 823 824 824 825 826 827 827 828 828 828 828 828 829 829 829 829 830 830 830 830 830 830 830 830 829 829 829 829 830 830 830 830 831 831 831 831 832 832 832 832 832 833
805 805 806 807 808 808 809 810 810 811 811 812 812 812 813 813 813 814 815 816 817 818 818 819 820 821 822 823 823 824 825 826 826 827 827 828 828 828 828 828 828 829 829 829 829 829 829 829 829 829 829 829 829 829 829 829 830 830 830 831 831 831 832 832 832 832 832 833 833
804 805 805 806 807 808 808 809 810 810 811 811 812 812 812 813 813 814 815 816 817 818 819 819 820 821 822 823 823 824 824 825 826 826 826 827 827 828 828 828 828 828 829 829 829 829 829 829 829 829 829 829 829 829 829 829 829 829 830 830 831 831 831 831 832 832 832 833 833
Wind_Speed
12 11 11 12 12 12 13 13 12 12 12 13 13 13 13 14 14 13 13 13 13 12 12 12 11 11 11 10 11 11 11 10 10 10 10 10 11 10 9 9 8 8 8 9 9 9 9 10 10 11 11 11 11 11 11 11 10 10 11 11 12 11 11 11 11 11 11 11 11
12 12 11 11 12 13 13 13 13 13 13 13 13 14 14 14 14 13 13 13 13 12 12 12 11 10 10 10 10 10 10 10 9 9 9 10 10 10 9 8 8 7 7 8 8 9 10 10 11 12 13 12 12 13 12 12 11 12 13 13 13 13 13 13 13 13 13 13 12
12 12 12 12 13 13 13 13 13 13 13 14 14 14 14 14 14 13 13 13 12 12 12 12 11 10 10 9 9 9 9 9 9 9 9 9 9 9 9 8 8 7 7 8 9 10 11 12 12 13 13 13 13 13 13 12 12 13 14 14 14 14 14 14 14 14 14 14 14
12 12 12 12 12 13 13 12 12 13 13 14 14 14 14 14 14 14 13 13 12 12 12 12 11 11 10 10 10 10 9 9 9 9 9 9 9 10 10 10 10 9 9 10 11 12 13 13 13 14 14 13 13 13 13 13 13 14 15 15 15 15 15 14 14 14 14 14 14
12 12 12 12 12 12 12 12 12 13 13 14 14 14 14 14 13 13 13 12 12 12 11 11 11 11 11 10 10 10 10 10 10 9 10 10 11 11 12 12 12 11 11 11 12 13 14 14 15 15 15 14 14 14 14 14 15 16 16 16 16 16 15 15 14 14 14 14 14
12 12 12 11 12 12 12 12 13 13 14 14 14 14 14 13 13 12 12 12 11 10 10 9 10 10 11 11 11 11 11 11 10 10 10 11 11 12 12 12 12 11 11 11 12 13 14 15 15 15 15 15 15 15 14 14 16 17 17 17 17 17 16 16 15 15 14 14 14
12 12 12 11 11 11 12 12 13 14 14 14 14 14 14 13 13 12 12 12 11 10 9 9 9 9 10 10 10 10 10 10 10 11 11 11 12 12 12 12 12 11 11 11 12 13 14 15 16 16 16 16 16 16 15 15 16 17 17 18 18 18 18 17 16 15 15 15 15
13 12 12 12 12 12 12 12 13 14 14 14 14 14 14 13 13 13 13 13 13 12 11 10 9 9 9 10 10 10 10 10 10 10 11 11 12 12 12 12 12 12 11 11 12 14 15 16 16 16 16 16 16 16 16 16 17 17 18 18 18 18 18 18 17 17 16 16 16
12 13 13 13 13 13 13 13 13 14 14 14 14 13 13 13 14 14 14 14 13 13 12 12 11 11 11 11 11 10 10 10 10 11 11 11 12 12 12 12 13 13 12 12 13 14 15 16 17 17 17 17 17 17 17 17 18 19 19 18 18 18 18 18 18 18 18 18 17
12 12 12 12 13 13 13 13 13 14 14 14 13 13 13 13 14 14 14 14 13 12 12 12 12 13 13 13 12 12 11 11 11 11 12 12 12 13 13 13 13 13 13 13 14 14 15 17 17 18 18 18 18 18 18 18 19 19 19 19 18 18 18 18 19 19 18 18 18
12 12 12 12 12 12 13 14 14 14 14 14 13 13 13 13 13 13 13 13 13 12 12 12 12 13 13 13 13 12 12 12 11 12 12 13 13 13 13 13 13 13 14 14 14 15 16 17 17 18 18 18 18 18 19 19 19 19 19 19 19 19 19 18 18 18 18 18 18
11 11 11 12 12 12 13 13 14 14 14 14 13 13 12 12 12 12 12 13 13 13 12 12 12 12 12 12 12 12 12 12 12 12 13 14 14 14 13 13 13 14 14 14 14 15 16 17 18 18 18 18 18 19 19 19 19 19 19 19 19 20 19 19 18 18 18 18 18
11 11 11 12 12 12 13 13 13 13 13 13 13 12 11 11 10 11 12 13 13 13 12 12 12 12 12 12 12 12 12 12 12 12 13 14 14 15 15 14 14 14 14 15 15 16 17 18 18 19 19 19 19 19 19 19 19 20 20 20 20 20 20 19 19 18 18 19 19
10 10 11 11 11 11 12 12 12 11 11 11 11 11 10 10 10 10 11 12 12 12 12 12 12 11 11 12 12 12 12 12 12 12 13 13 14 15 16 16 15 15 15 15 15 16 17 18 19 19 19 19 19 19 20 20 20 20 20 20 20 20 19 19 18 18 19 19 19
9 9 10 10 10 10 10 10 10 10 10 10 9 9 9 9 8 9 10 11 11 11 11 11 11 11 11 11 11 11 11 11 12 12 13 14 15 15 16 16 16 16 16 16 16 16 17 18 19 19 20 20 20 20 20 20 20 20 20 20 20 20 19 19 19 19 19 19 19
8 8 8 8 8 9 9 9 9 9 9 9 9 9 9 8 8 8 8 9 9 10 10 11 11 11 11 11 11 11 11 12 12 13 13 14 15 15 16 16 16 16 16 16 17 17 17 18 18 19 20 20 20 20 20 20 20 20 20 20 20 19 19 19 19 19 20 20 20
8 8 8 8 8 8 8 8 9 9 9 10 10 10 9 9 9 8 8 9 9 9 10 10 10 10 11 11 11 12 12 12 12 13 14 14 15 15 15 16 15 15 16 16 17 17 17 17 17 18 19 20 20 20 20 20 20 20 20 20 19 19 19 19 19 20 20 20 20
9 9 8 8 8 8 8 8 8 9 9 10 10 10 10 10 10 10 9 9 10 10 10 10 10 10 11 11 11 12 12 12 13 14 14 14 15 15 15 15 15 15 15 15 16 17 17 17 17 18 18 19 20 20 20 20 20 20 20 20 19 19 19 19 19 20 20 20 20
9 9 9 9 9 8 8 8 8 8 9 9 10 10 11 11 11 11 11 10 10 10 10 10 10 10 11 11 12 13 13 14 14 15 15 15 15 15 15 15 15 15 15 15 16 16 16 17 17 18 18 19 19 19 19 20 20 20 19 19 19 19 18 18 19 19 20 20 20
9 10 10 10 9 9 8 8 9 9 9 10 10 10 11 11 11 11 11 11 10 10 10 10 10 10 10 11 12 13 15 15 16 16 16 16 16 15 15 15 14 14 15 15 15 16 16 16 17 17 18 19 19 19 19 19 19 19 19 18 18 18 18 18 18 19 19 19 19
9 9 10 10 10 10 9 9 9 10 10 10 10 11 11 11 11 11 11 10 10 10 10 10 9 9 9 9 10 11 13 14 15 16 16 16 16 16 15 15 15 15 15 15 16 16 16 17 17 17 18 18 19 19 19 19 19 19 18 18 18 17 17 17 18 18 19 19 19
9 9 9 10 10 10 10 10 10 10 10 11 10 11 10 10 10 10 10 10 10 10 10 10 9 9 8 8 8 9 10 11 13 13 14 14 15 14 14 14 14 14 15 15 16 17 17 17 18 18 17 17 17 17 18 18 18 18 18 18 17 17 16 16 17 18 18 19 18
9 9 9 10 10 10 10 10 10 10 10 10 10 10 10 10 9 9 9 9 10 10 10 10 10 10 9 8 8 8 8 10 10 11 11 12 12 12 11 11 11 11 12 13 14 16 17 17 17 16 16 15 15 15 15 16 17 17 18 17 17 16 15 15 16 16 17 18 18
9 9 10 10 10 10 10 10 10 10 10 10 10 10 9 9 9 9 9 9 10 10 11 11 10 10 10 10 9 9 9 10 10 11 11 11 10 10 10 10 9 9 9 9 10 11 13 14 14 14 13 13 13 13 13 14 14 15 16 16 16 15 15 14 14 15 16 16 16
9 10 10 10 10 10 10 10 10 10 10 10 9 9 9 9 9 9 9 10 10 11 11 11 11 11 11 11 11 11 11 11 11 11 11 10 10 10 10 10 10 9 9 8 7 8 9 10 11 12 12 13 13 13 13 13 13 13 14 14 14 14 14 14 14 14 14 15 15
10 10 10 10 10 10 10 10 10 11 10 10 10 10 9 9 9 10 10 10 10 10 10 11 11 11 11 11 11 12 12 12 11 11 11 10 10 10 10 10 9 9 9 8 8 8 8 9 10 11 12 13 13 14 14 14 13 13 13 13 13 13 13 13 13 13 13 13 13
11 11 10 10 9 9 10 10 11 11 11 11 11 10 10 10 10 10 10 10 10 10 10 10 10 10 11 11 11 11 11 11 11 11 10 10 10 10 10 10 9 9 9 8 8 9 9 9 9 10 11 12 13 14 14 14 14 13 13 13 13 13 13 13 13 13 12 12 11
11 11 10 10 9 9 10 10 10 11 11 11 11 11 11 10 10 10 10 10 10 9 9 9 9 10 10 10 10 11 11 11 11 11 10 10 10 10 10 10 10 9 9 9 9 9 9 9 9 10 11 12 13 13 13 13 13 13 13 13 13 13 13 13 13 12 12 11 11
12 11 10 9 9 9 10 10 10 11 11 11 11 11 11 11 10 10 10 10 10 9 9 9 8 9 9 10 10 10 10 11 11 11 10 10 10 11 11 10 10 9 9 9 9 9 9 9 9 10 10 11 12 12 12 12 12 12 12 13 13 13 13 13 13 13 12 11 11
12 11 10 9 9 9 10 10 10 11 11 11 11 11 11 11 11 11 10 10 9 9 8 8 8 8 8 9 9 10 10 10 11 11 10 10 10 10 10 9 9 8 8 8 9 9 9 9 10 10 10 11 12 12 12 12 12 12 12 12 12 13 13 13 13 12 12 11 11
12 11 10 10 9 10 10 10 10 10 10 11 11 11 11 11 11 11 10 10 10 9 9 8 8 8 8 9 9 9 9 10 10 10 9 9 9 9 9 9 8 8 8 8 9 9 9 10 10 10 10 10 11 11 11 12 12 12 12 12 12 12 12 12 12 12 11 11 10
13 12 11 10 10 10 10 11 11 10 10 10 10 11 11 11 11 11 11 10 10 9 9 8 8 8 8 8 9 9 9 9 9 9 9 8 8 8 8 8 8 8 8 8 8 9 9 10 10 10 10 10 11 11 11 11 11 11 11 11 11 11 11 11 11 11 11 10 10
13 12 11 10 10 10 11 11 11 11 11 10 10 11 11 11 11 10 10 10 10 9 9 8 8 8 8 8 8 8 8 8 8 8 8 8 7 7 7 8 8 7 7 7 8 9 9 9 10 10 10 10 11 10 10 10 10 10 10 10 10 10 10 10 10 10 10 10 9
14 13 11 11 10 10 11 11 11 11 11 11 11 11 11 10 10 10 10 9 9 9 9 8 8 7 7 7 7 8 8 8 8 8 7 7 7 7 7 7 7 7 7 7 8 8 8 9 9 9 10 10 10 10 10 10 10 10 10 10 10 9 9 8 8 8 8 8 8
14 13 12 11 11 11 11 12 12 11 11 11 11 11 10 10 10 10 9 9 9 9 9 9 8 8 8 7 8 8 9 8 8 7 7 7 8 8 8 8 7 7 7 7 7 8 8 8 8 9 9 9 9 10 10 10 10 10 10 10 10 9 8 7 7 6 6 6 7
15 13 12 11 11 11 12 12 12 12 11 10 10 10 10 9 9 9 9 8 8 9 9 9 9 9 9 8 9 9 9 9 8 8 8 8 8 8 8 8 7 7 7 7 7 7 7 7 7 8 8 8 9 9 9 9 9 9 8 9 9 9 8 7 7 6 6 6 6
15 13 12 11 12 12 12 13 12 12 11 10 10 10 9 9 8 8 8 8 8 8 9 9 10 9 9 9 10 10 10 9 9 8 9 9 8 8 8 8 7 7 7 7 7 7 7 7 7 7 7 8 8 8 8 8 8 8 7 7 7 7 7 6 6 7 7 6 6
15 14 12 12 12 13 13 13 12 11 11 10 10 9 9 8 8 8 8 7 7 7 8 9 10 10 11 11 11 12 11 10 9 9 9 9 9 8 8 8 8 8 7 7 7 7 7 7 7 7 7 7 8 8 8 8 8 7 7 7 7 6 6 5 5 5 6 6 5
16 14 13 13 13 13 13 13 12 11 10 10 10 9 9 9 8 8 8 7 7 7 8 9 10 11 12 12 12 13 13 11 10 9 8 9 9 9 9 9 9 9 8 7 7 7 7 7 7 7 7 7 7 8 8 8 8 7 7 7 6 6 5 5 4 4 4 4 4
16 15 14 13 13 14 14 13 12 11 10 10 10 10 9 9 9 9 9 8 7 7 8 9 10 11 12 13 13 14 14 13 11 10 9 9 9 9 9 10 10 9 8 7 7 6 6 7 7 7 7 8 7 7 7 7 8 7 7 7 6 6 5 4 4 3 3 3 2
17 16 14 13 13 14 14 13 12 11 10 10 10 10 10 10 10 10 10 9 8 8 8 9 10 10 11 12 13 14 15 14 12 11 10 11 10 10 9 10 10 9 8 7 7 6 6 7 7 7 8 8 8 7 7 7 7 7 7 7 6 5 4 4 3 3 3 2 1
Wind_Direction
76 79 83 87 91 93 94 93 92 92 91 90 87 87 87 87 85 84 84 83 81 78 77 76 74 73 74 73 72 72 72 72 73 74 75 77 79 81 84 87 90 92 93 96 97 98 98 98 97 95 93 93 93 93 94 95 97 100 99 95 91 90 90 89 87 85 84 83 85
75 80 83 87 92 94 95 93 91 90 88 88 86 86 85 84 83 82 82 82 82 82 81 79 78 76 75 75 75 75 74 75 75 75 75 75 77 79 82 84 87 90 93 96 99 101 101 101 99 94 90 89 89 89 90 93 97 99 97 93 90 89 89 88 86 85 84 81 81
75 79 83 87 90 91 91 90 89 88 87 86 86 85 84 83 83 82 82 83 84 85 83 81 78 75 74 75 77 77 77 76 77 77 77 78 81 83 86 89 91 95 99 101 104 104 104 103 100 96 91 88 88 87 88 91 96 96 93 88 87 86 86 85 85 84 82 80 77
75 76 78 81 83 85 87 87 87 87 86 85 85 84 83 83 82 82 82 84 85 85 84 81 77 74 73 73 75 76 78 79 80 82 83 84 86 87 90 92 93 96 100 103 105 104 103 102 100 96 94 91 90 89 89 91 94 93 90 86 85 84 84 85 87 86 85 83 81
74 74 75 76 79 81 83 85 85 85 85 85 85 83 82 82 81 82 82 82 83 85 86 85 82 78 76 75 75 76 78 81 83 86 88 90 90 89 89 89 89 92 97 101 104 103 102 100 97 95 94 94 93 92 92 94 93 91 89 86 83 83 83 84 85 87 88 87 86
72 72 73 75 76 78 79 81 82 83 84 86 85 84 84 83 82 81 80 80 82 86 90 91 90 87 84 82 80 79 80 83 85 88 90 92 92 91 90 89 90 92 97 101 104 105 103 100 96 94 93 94 94 95 96 97 95 92 88 84 82 82 82 82 83 85 88 89 90
70 69 70 73 75 76 76 78 80 82 84 85 85 85 85 85 84 82 80 80 81 82 86 90 93 94 93 91 88 86 86 88 90 91 92 92 93 93 93 92 94 96 99 103 105 105 103 100 95 92 92 93 93 95 98 100 99 95 90 85 83 82 81 81 83 84 86 88 90
71 68 68 71 74 76 76 77 79 81 82 84 84 85 86 85 84 83 81 79 77 76 77 80 85 91 95 95 93 92 92 95 96 96 96 96 96 97 97 97 97 100 102 106 107 105 102 100 96 93 92 93 93 95 98 101 102 99 94 88 85 83 83 82 82 83 83 84 85
72 70 70 70 72 75 77 79 80 81 82 83 84 86 86 85 84 84 82 80 79 78 77 76 77 80 83 85 85 87 90 95 96 98 99 101 101 101 101 100 100 101 104 108 108 107 104 101 98 96 95 95 94 96 98 101 102 100 96 92 88 86 85 83 82 81 80 80 78
74 73 72 71 72 75 78 80 81 82 83 84 85 86 86 85 84 84 84 85 85 83 81 79 77 76 75 74 75 77 81 86 92 96 100 102 102 102 102 102 102 103 105 107 109 109 106 103 100 99 98 97 97 97 98 100 100 97 95 93 91 88 86 83 82 80 79 78 76
78 77 75 74 75 78 80 81 81 83 84 86 86 87 86 86 85 85 86 87 85 83 81 81 80 78 76 75 74 75 77 81 87 92 96 98 99 101 102 104 105 106 106 107 109 109 108 105 104 102 101 99 98 97 97 98 97 95 94 93 92 89 86 83 82 80 79 78 76
84 82 81 81 81 82 82 81 81 83 84 85 86 86 86 86 87 88 88 87 84 81 79 80 81 81 81 80 80 80 80 82 85 89 92 94 96 98 100 103 105 106 107 108 110 110 109 108 107 105 103 100 98 97 96 97 96 94 92 91 90 87 84 83 82 81 80 78 76
91 90 88 86 85 84 83 82 81 82 82 84 85 85 85 85 85 87 88 87 86 83 80 79 81 83 85 85 84 84 85 86 88 91 93 95 96 97 98 100 101 103 105 107 110 111 110 110 109 107 105 102 99 98 97 96 95 93 91 88 86 84 82 81 81 81 81 79 76
92 92 92 90 88 86 84 82 81 81 81 83 84 85 85 84 82 83 85 87 87 85 83 80 80 82 84 85 85 86 88 90 92 94 96 97 97 98 98 98 100 102 103 105 108 110 111 111 111 110 107 104 102 100 98 97 95 93 91 88 86 84 83 82 82 81 80 78 75
87 89 90 91 90 89 88 87 86 85 84 84 84 84 85 86 84 83 84 86 87 86 83 81 78 78 80 83 84 86 89 92 94 97 98 98 98 98 98 100 101 102 104 105 107 108 110 111 111 111 110 107 104 102 99 97 95 94 92 90 88 87 86 85 84 82 81 79 76
89 89 90 91 93 94 94 94 93 92 89 87 88 87 88 90 90 90 91 93 91 90 87 84 80 77 75 77 79 82 85 89 93 96 97 96 97 97 99 101 102 103 105 106 107 108 109 110 111 111 110 108 106 103 101 98 97 95 93 92 91 90 88 87 86 84 82 80 77
96 93 94 96 98 100 102 102 101 98 95 93 92 92 92 92 93 96 99 102 102 100 96 91 87 82 79 76 75 77 81 84 89 92 92 93 94 96 98 100 102 103 105 106 107 107 108 108 109 110 109 108 106 104 102 100 98 96 94 93 91 90 89 88 87 86 84 81 78
101 99 99 99 101 104 108 109 109 107 103 101 98 98 99 98 97 97 99 102 104 103 102 100 96 91 87 84 82 82 83 84 87 89 91 92 94 96 97 98 99 101 103 105 106 107 108 108 109 109 109 108 106 104 102 100 98 96 94 92 91 90 89 88 88 87 86 83 79
107 106 104 102 102 105 109 111 111 110 108 107 107 107 107 105 103 101 100 100 102 104 104 103 100 96 92 90 89 88 88 88 89 90 91 93 95 96 97 97 98 99 100 102 103 105 107 109 110 110 109 108 107 105 103 101 98 96 93 91 90 89 88 89 89 88 86 84 81
114 112 110 109 108 109 109 110 110 110 109 109 110 110 110 109 106 102 99 99 100 102 103 103 102 99 94 90 87 86 87 87 87 87 88 89 90 92 94 97 99 101 102 103 102 103 104 106 107 108 108 108 107 106 105 102 100 97 95 92 90 89 88 88 89 89 87 85 82
120 118 117 117 116 115 113 113 113 113 112 111 110 110 109 107 103 100 98 100 101 103 104 104 103 102 97 90 84 82 82 81 82 83 82 81 82 83 85 89 93 98 102 105 106 106 105 105 105 104 104 104 104 104 104 103 102 100 98 95 92 90 88 87 87 88 88 86 84
128 127 126 124 122 121 120 119 120 119 118 116 114 112 109 105 101 100 101 104 106 105 105 105 105 105 104 99 92 85 80 78 78 79 79 76 75 74 75 78 82 87 93 99 104 106 107 106 104 101 99 97 97 97 98 99 100 99 98 96 94 92 89 87 85 85 86 86 85
139 135 132 128 125 124 124 125 125 124 123 121 119 116 112 109 107 107 109 110 109 108 106 105 105 106 107 107 105 100 93 88 85 83 81 78 76 75 75 75 76 78 83 90 97 102 104 104 102 99 98 96 95 94 94 94 94 95 95 95 94 93 91 88 85 82 81 82 83
147 141 136 132 129 129 131 131 131 129 126 124 122 120 118 117 116 117 116 114 111 108 106 105 106 108 110 109 108 107 106 104 100 95 91 88 87 86 85 83 83 83 85 89 95 100 102 101 101 101 102 103 102 100 98 96 94 93 93 94 95 96 94 91 86 82 78 77 77
153 147 142 138 137 138 140 140 138 135 131 128 125 123 122 120 120 118 117 114 109 105 103 103 106 108 109 108 106 105 107 108 107 103 100 95 92 89 86 84 85 87 90 96 103 107 106 105 106 109 112 113 113 111 108 105 101 99 98 98 98 98 97 94 90 84 80 76 73
159 153 148 146 146 148 148 147 146 143 141 137 133 129 125 122 120 118 116 112 108 104 102 101 102 104 105 105 104 104 105 106 106 105 103 99 95 90 87 84 83 83 87 93 102 108 110 111 113 117 119 118 118 116 114 111 109 107 105 103 102 101 99 97 94 90 84 79 74
162 155 152 151 152 154 155 155 153 152 149 146 141 136 132 128 126 124 121 117 113 109 106 104 103 103 103 103 103 102 102 102 104 104 103 100 95 91 87 84 83 83 86 91 97 103 107 110 114 118 120 119 117 114 113 112 112 112 111 110 108 105 102 100 97 95 91 86 79
163 157 153 153 155 159 162 161 160 158 156 153 148 143 138 135 133 131 129 124 120 117 115 114 112 110 108 105 103 101 100 100 102 102 100 95 90 87 85 84 83 84 87 91 96 101 106 109 112 116 119 120 116 114 113 113 114 115 116 115 112 109 106 103 101 99 96 92 86
163 157 154 154 159 164 166 164 163 162 161 158 154 149 145 141 139 137 135 131 129 127 127 127 124 121 116 112 106 102 100 99 100 100 97 91 86 85 85 84 84 85 87 91 96 101 105 109 112 115 118 121 120 119 118 118 118 118 118 116 115 111 109 106 104 103 101 99 94
163 159 157 158 163 167 168 167 167 165 164 161 158 154 150 148 146 144 143 142 140 139 138 136 132 128 124 119 112 106 101 99 99 100 99 95 92 90 90 90 88 87 88 92 97 102 106 109 112 114 117 122 126 125 124 124 122 121 119 117 116 114 112 110 108 107 105 103 100
166 162 161 163 168 172 172 171 169 167 165 162 160 158 155 154 153 153 154 153 153 149 145 140 136 130 126 121 116 109 102 99 100 103 106 106 103 102 101 99 95 91 91 94 99 103 107 109 111 114 117 123 128 129 128 127 126 124 122 120 119 118 116 115 114 111 109 107 105
168 165 164 167 172 176 176 173 169 166 164 162 161 159 158 158 159 161 162 162 159 154 147 141 136 130 126 122 117 113 108 105 107 111 116 117 114 112 109 106 101 98 95 97 102 105 107 109 111 114 118 122 126 126 125 125 124 124 124 123 123 122 121 121 119 118 116 114 110
170 167 167 171 175 178 178 173 169 165 162 162 161 160 160 161 163 165 164 162 159 153 147 141 136 132 128 126 122 119 117 118 119 123 126 126 123 119 115 112 107 102 100 100 104 108 109 111 112 114 118 120 120 118 116 114 114 114 116 118 119 121 123 124 124 124 123 121 117
172 170 171 174 178 180 178 173 169 165 163 162 162 163 163 163 163 162 161 158 156 153 149 145 141 138 136 136 134 132 130 129 132 136 140 138 135 130 126 120 114 108 104 103 106 109 112 114 115 116 117 117 114 111 108 105 101 100 100 102 105 108 112 117 120 124 127 128 126
175 172 173 177 181 182 179 174 170 166 164 164 165 165 165 165 163 161 159 158 157 157 156 153 152 150 148 149 150 148 145 141 142 147 153 151 147 142 136 130 122 115 110 107 107 111 115 118 120 121 120 117 112 109 107 104 100 95 92 90 90 92 93 96 100 106 115 124 129
177 174 174 178 182 183 180 175 170 167 167 167 167 165 164 164 163 163 162 163 164 164 164 164 164 162 160 160 162 163 160 154 152 154 158 159 156 151 146 139 132 125 117 112 110 113 117 121 125 126 125 120 116 113 110 107 104 99 94 90 87 84 82 80 78 80 88 103 118
179 176 177 181 183 183 180 176 172 170 170 170 168 165 162 161 162 163 166 168 168 170 173 176 176 174 172 170 169 170 169 165 161 159 160 162 163 161 156 149 142 134 127 120 115 113 115 120 126 130 128 125 123 119 115 111 108 104 100 95 91 88 82 75 68 65 71 83 100
181 178 179 182 183 182 180 176 173 172 172 172 169 166 162 161 161 163 166 168 169 172 178 183 184 185 183 180 177 176 175 172 170 166 164 165 167 167 163 157 150 144 137 128 120 115 113 116 122 126 129 130 128 125 120 114 110 106 102 100 98 96 90 81 69 59 59 66 78
183 180 181 183 183 182 179 176 174 174 175 174 171 168 166 165 164 164 164 164 168 174 180 185 189 191 191 188 184 180 178 176 174 172 170 168 168 168 165 160 154 150 146 137 128 120 114 112 115 121 127 131 130 126 121 117 112 108 106 105 105 104 101 93 81 67 58 58 65
185 182 181 183 183 181 179 176 175 175 177 177 174 172 171 171 170 168 165 164 169 177 184 189 193 194 195 193 189 185 182 179 178 178 177 171 168 168 167 163 158 155 152 146 139 129 120 113 113 117 124 129 127 124 120 118 116 113 111 110 111 111 112 109 102 91 81 75 74
187 182 180 182 183 181 178 176 175 177 179 180 178 177 177 177 177 175 171 169 172 179 187 191 193 195 195 194 192 189 185 183 183 183 181 172 165 163 166 167 164 160 156 152 147 139 129 121 116 117 122 126 124 122 121 123 122 119 115 113 113 116 121 124 125 120 112 102 86